Massena, NY

3:04 AM EST on December 09, 2019 (GMT -0500)
Massena International-Richards

Weather History for KMSS - October, 2019

Change the Weather History Date:

Wednesday, October 30, 2019

  Actual Average Record
Temperature  
Mean Temperature 55 °F 41 °F  
Max Temperature 60 °F 51 °F 73 °F (1989)
Min Temperature 50 °F 32 °F 15 °F (1967)
Degree Days  
Heating Degree Days 10 24  
Month to date heating degree days 484 559  
Since 1 July heating degree days 699 859  
Cooling Degree Days 0 0  
Month to date cooling degree days 0 0  
Year to date cooling degree days 398 361  
Growing Degree Days 6 (Base 50)    
Moisture  
Dew Point 47 °F    
Average Humidity 75    
Maximum Humidity 80    
Minimum Humidity 69    
Precipitation  
Precipitation 0.01 in 0.10 in 0.54 in (2017)
Month to date precipitation 5.57 3.21  
Year to date precipitation 29.28 29.40  
Sea Level Pressure  
Sea Level Pressure 30.20 in    
Wind  
Wind Speed 7 mph (NW)    
Max Wind Speed 14 mph    
Max Gust Speed 18 mph    
Visibility 10 miles    
Events Rain    
T = Trace of Precipitation, MM = Missing Value Source: NWS Daily Summary

Daily Weather History Graph

Daily Weather History Graph

Search for Another Location

Airport or City:

Astronomy

Oct. 30, 2019 Rise Set
Actual Time 7:34 AM EDT 5:50 PM EDT
Civil Twilight 7:04 AM EDT 6:21 PM EDT
Nautical Twilight 6:29 AM EDT 6:55 PM EDT
Astronomical Twilight 5:55 AM EDT 7:29 PM EDT
Moon 10:20 AM EDT (10/30) 7:50 PM EDT (10/30)
Length of Visible Light 11h 16m
Length of Day
10h 16m
Waxing Crescent, 8% of the Moon is Illuminated
Oct 30
Waxing Crescent
Nov 4
First Quarter
Nov 12
Full
Nov 19
Last Quarter
Nov 26
New

Hourly Weather History & Observations

Time (EDT) Temp. Dew Point Humidity Pressure Visibility Wind Dir Wind Speed Gust Speed Precip Events Conditions
12:53 AM 60.1 °F 50.0 °F 69% 30.18 in 10.0 mi SSW 11.5 mph - N/A   Overcast
1:53 AM 60.1 °F 50.0 °F 69% 30.19 in 10.0 mi SW 10.4 mph - N/A   Overcast
2:53 AM 59.0 °F 50.0 °F 72% 30.19 in 10.0 mi SW 9.2 mph - N/A   Overcast
3:53 AM 57.9 °F 50.0 °F 75% 30.20 in 10.0 mi SW 10.4 mph - N/A   Mostly Cloudy
4:53 AM 57.9 °F 50.0 °F 75% 30.21 in 10.0 mi SSW 9.2 mph - N/A   Overcast
5:53 AM 59.0 °F 50.0 °F 72% 30.22 in 10.0 mi SW 13.8 mph - N/A   Overcast
6:53 AM 55.9 °F 50.0 °F 80% 30.24 in 10.0 mi SW 5.8 mph - N/A   Overcast
7:13 AM 57.0 °F 50.0 °F 77% 30.24 in 10.0 mi WSW 4.6 mph - N/A   Overcast
7:53 AM 57.0 °F 50.0 °F 77% 30.25 in 10.0 mi SW 3.5 mph - N/A   Overcast
8:53 AM 57.0 °F 50.0 °F 77% 30.28 in 10.0 mi SW 5.8 mph - 0.00 in Rain Light Rain
9:53 AM 55.0 °F 48.0 °F 77% 30.28 in 10.0 mi NW 9.2 mph - 0.00 in   Overcast
10:53 AM 54.0 °F 46.9 °F 77% 30.27 in 10.0 mi NW 6.9 mph - N/A   Overcast
11:53 AM 54.0 °F 46.9 °F 77% 30.28 in 10.0 mi WNW 4.6 mph - N/A   Overcast
12:53 PM 54.0 °F 46.0 °F 75% 30.26 in 10.0 mi WSW 3.5 mph - N/A   Overcast
1:53 PM 55.0 °F 46.0 °F 72% 30.25 in 10.0 mi West 4.6 mph - N/A   Overcast
2:53 PM 55.9 °F 46.0 °F 69% 30.22 in 10.0 mi North 5.8 mph - N/A   Overcast
3:53 PM 55.0 °F 45.0 °F 69% 30.22 in 10.0 mi NNW 5.8 mph - N/A   Overcast
4:53 PM 54.0 °F 44.1 °F 69% 30.20 in 10.0 mi NNW 6.9 mph - N/A   Overcast
5:01 PM 54.0 °F 44.1 °F 69% 30.19 in 10.0 mi North 6.9 mph - N/A   Overcast
5:21 PM 54.0 °F 44.1 °F 69% 30.20 in 10.0 mi North 6.9 mph - N/A   Overcast
5:53 PM 53.1 °F 45.0 °F 74% 30.18 in 10.0 mi NE 6.9 mph - N/A   Overcast
6:53 PM 52.0 °F 45.0 °F 77% 30.19 in 10.0 mi NNE 6.9 mph - 0.00 in   Overcast
7:53 PM 52.0 °F 44.1 °F 74% 30.16 in 10.0 mi North 6.9 mph - N/A   Overcast
8:53 PM 51.1 °F 43.0 °F 74% 30.14 in 10.0 mi NE 5.8 mph - N/A   Overcast
9:53 PM 51.1 °F 44.1 °F 77% 30.11 in 10.0 mi NE 4.6 mph - N/A   Overcast
10:53 PM 51.1 °F 44.1 °F 77% 30.08 in 10.0 mi NE 5.8 mph - N/A   Overcast
11:24 PM 51.1 °F 44.1 °F 77% 30.05 in 10.0 mi NE 6.9 mph - N/A   Overcast
11:53 PM 51.1 °F 44.1 °F 77% 30.04 in 10.0 mi NE 8.1 mph - N/A   Overcast